Showing default

CENTISPACE-1 S8, 62577

Orbit data source: Space-Track

CENTISPACE-1 S8, 62577 is a payload satellite owned by Centispace (CN) in LEO that was launched on Mon, 13 Jan 2025 UTC via a JIELONG-3 launch vehicle from the Yellow Sea Launch Area, China (YSLA). Payload-class satellites include a variety of spacecraft equipped with specific instruments for various scientific and technological missions. These include communications satellites like Starlink; space stations such as the ISS; scientific satellites like the Hubble; Earth observation satellites from companies like Planet Labs, Umbra, and HawkEye 360; GPS; miniature CubeSats for education and research; and military/defense satellites.

Loading next visibility...
Identifier
62577, 2025-007C
Orbit
LEO
Country
Flag of CNCN / PRC
Related business
Manufacturer
DFH Shenzhen
Mission
Operational Commercial Nav/Com
Bus & Motor
WK01, Unknown motor
Mass
140 kg wet, 140 kg dry
Launch date (UTC)
2025-01-13 (1 year ago)
Launch vehicle
JIELONG-3
Launch site
Yellow Sea Launch Area, China (YSLA)
Object type
Payload
Rocket body
Debris
Shape & HBR
Box + 2 Pan, 0.9 m
Radar Cross Section
0.833 m², Medium (>0.1 m² and < 1m²)

Expand to show TLE details & history
Last TLE update: 14 hours ago

TLE from 14 hours ago
0 CENTISPACE-1 S8
1 62577U 25007C   26034.17880737 -.00000058  00000-0  62042-4 0  9999
2 62577  54.9853  42.3369 0008473 283.6337  76.3683 13.98110973 56189
Epoch: 2026-02-03T04:17Z
TLE epoch observation values (Epoch: 2026-02-03T04:17:28.956Z)
Latitude
-0.00008°
Longitude
-155.39727°
Altitude
899.926 km
Speed
7.404 km/s
True Right ascension
02h 49m 20s
True Declination
0° 00' 00"
Sunlit
Object was in daylight at epoch
Visualization orbit readout
Latitude
Unknown
Longitude
Unknown
Altitude
Unknown
Speed
Unknown
Apparent Right ascension
Unknown
Apparent Declination
Unknown
Sunlit
N/A
Visualization observer readout
Local Sidereal Time
20:15:51
Azimuth
Unknown
Elevation
Unknown
Doppler factor
Unknown
Orbital elements
Apogee altitude
906.478 km
Perigee altitude
894.144 km
Semi-major axis
7,278.448 km
Eccentricity
0.00085
Inclination
54.9853°
RAAN
42.3369°
Arg. of periapsis
283.6337°
True anomaly
76.46268°
Mean anomaly
76.3683°
Eccentric anomaly
76.41549°
Mean motion
3.4953 °/min
Orbital period
103 mins
BSTAR
0.000062042
Loading maneuver chart data...
Computing Atmospheric mass density...
Loading historical data...
Loading historical data...
Loading historical data...
Loading historical data...
Loading historical data...
Loading historical data...
Loading historical data...

Documentation

Showing up to 5 results
|